Voltar ao catálogo

FENGYUN 1C DEB

AtivoPO
NORAD 30520·DEBRIS·🇨🇳 China

Lançado May 10, 1999 de Taiyuan Satellite Launch Center

Loading…

Próximas Passagens (próximas 24 horas)

TLE

AtualizadoSource: Space-Track

Época: Sep 14, 2026, 13:55 UTC

1 30520U 99025AJJ 26257.58052095  .00015974  00000-0  59924-3 0  9999
2 30520  98.7027 118.2715 0052524 247.7381 111.8278 15.26033307 52331

Acompanhe FENGYUN 1C DEB em tempo real com AllMySat

Download on the App Store